COSMOS 2491 DEB, 57550

Orbit data source: Space-Track

COSMOS 2491 DEB, 57550 is space debris in LEO originally from a launch on Wed, 25 Dec 2013 UTC launched from the Plesetsk Missile And Space Complex (PKMTR). Debris objects in space refer to the collection of defunct objects orbiting the Earth. Examples of debris include non-operational satellites, rocket bodies, and fragments generated from explosions, collisions, or faulty payload assembly.

Loading next visibility...
Identifier
57550, 2013-076AM
Orbit
LEO
Country
Flag of CISCIS
Related business
Manufacturer
TsNIIKhM
Mission
Spacecraft
Bus & Motor
Unknown
Mass
Unknown
Launch date (UTC)
2013-12-25 (12 years ago)
Launch vehicle
Unknown
Launch site
Plesetsk Missile And Space Complex (PKMTR)
Object type
Payload
Rocket body
Debris
Shape & HBR
Unknown shape, 0.1 m
Radar Cross Section
Small (<0.1 m²)

Expand to show TLE details & history
Last TLE update: 1 day ago

TLE from 1 day ago
0 COSMOS 2491 DEB
1 57550U 13076AM  25288.18882279  .00003490  00000-0  15580-1 0  9995
2 57550  82.4648 259.9981 0184078 326.6365  32.3238 12.73654684112885
Epoch: 2025-10-15T04:31Z
TLE epoch observation values (Epoch: 2025-10-15T04:31:54.289Z)
Latitude
-0.00006°
Longitude
168.05541°
Altitude
1,250.101 km
Speed
7.286 km/s
True Right ascension
17h 19m 59s
True Declination
0° 00' 00"
Sunlit
Object was in daylight at epoch
Visualization orbit readout
Latitude
Unknown
Longitude
Unknown
Altitude
Unknown
Speed
Unknown
Apparent Right ascension
Unknown
Apparent Declination
Unknown
Sunlit
N/A
Visualization observer readout
Local Sidereal Time
06:48:23
Azimuth
Unknown
Elevation
Unknown
Doppler factor
Unknown
Orbital elements
Apogee altitude
1,506.919 km
Perigee altitude
1,221.873 km
Semi-major axis
7,742.533 km
Eccentricity
0.01841
Inclination
82.4648°
RAAN
259.9981°
Arg. of periapsis
326.6365°
True anomaly
33.47396°
Mean anomaly
32.3238°
Eccentric anomaly
32.89663°
Mean motion
3.1858 °/min
Orbital period
113 mins
BSTAR
0.01558
Loading maneuver chart data...
Computing Atmospheric mass density...
Loading historical data...
Loading historical data...
Loading historical data...
Loading historical data...
Loading historical data...
Loading historical data...
Loading historical data...

Documentation

Showing up to 5 results
|